Aurora, NE

9:17 PM CDT on April 29, 2017 (GMT -0500)
Aurora Municipal

Weather History for KAUH - January, 2014

Change the Weather History Date:

Sunday, January 26, 2014

  Actual Average Record
Temperature  
Mean Temperature 32 °F -  
Max Temperature 55 °F 33 °F 69 °F (2002)
Min Temperature 9 °F 12 °F -8 °F (1972)
Degree Days  
Heating Degree Days 33    
Moisture  
Dew Point 18 °F    
Average Humidity 47    
Maximum Humidity 71    
Minimum Humidity 30    
Precipitation  
Precipitation 0.00 in - - ()
Sea Level Pressure  
Sea Level Pressure 29.82 in    
Wind  
Wind Speed 21 mph (NW)    
Max Wind Speed 44 mph    
Max Gust Speed 52 mph    
Visibility 10 miles    
Events Snow    
Averages and records for this station are not official NWS values.
T = Trace of Precipitation, MM = Missing Value Source: NWS Daily Summary

Daily Weather History Graph

Daily Weather History Graph

Search for Another Location

Airport or City:

Trip Planner

Search our weather history database for the weather conditions in past years. The results will help you decide how hot, cold, wet, or windy it might be!

Date:

Astronomy

Jan. 26, 2014 Rise Set
Actual Time 7:47 AM CST 5:41 PM CST
Civil Twilight 7:18 AM CST 6:11 PM CST
Nautical Twilight 6:44 AM CST 6:44 PM CST
Astronomical Twilight 6:12 AM CST 7:17 PM CST
Moon 3:26 AM CST (1/26) 1:32 PM CST (1/26)
Length of Visible Light 10h 53m
Length of Day
9h 54m
Waning Crescent, 23% of the Moon is Illuminated
Jan 26
Waning Crescent
Jan 30
New
Feb 6
First Quarter
Feb 14
Full
Feb 22
Last Quarter

Hourly Weather History & Observations

Time (CST) Temp. Windchill Dew Point Humidity Pressure Visibility Wind Dir Wind Speed Gust Speed Precip Events Conditions
12:15 AM 45.9 °F 38.0 °F 27.3 °F 48% 29.61 in 10.0 mi West 20.7 mph - N/A   Clear
12:35 AM 45.5 °F 37.8 °F 26.6 °F 48% 29.62 in 10.0 mi West 19.6 mph 24.2 mph N/A   Clear
12:55 AM 44.6 °F 37.2 °F 25.9 °F 48% 29.62 in 10.0 mi West 17.3 mph - N/A   Clear
1:15 AM 45.0 °F 37.6 °F 25.3 °F 46% 29.62 in 10.0 mi West 17.3 mph - N/A   Clear
1:35 AM 46.6 °F - 24.8 °F 43% 29.62 in 10.0 mi West 17.3 mph 24.2 mph N/A   Clear
1:55 AM 48.2 °F - 24.8 °F 40% 29.63 in 10.0 mi WNW 16.1 mph 25.3 mph N/A   Clear
2:15 AM 46.9 °F - 24.8 °F 42% 29.63 in 10.0 mi WNW 17.3 mph - N/A   Clear
2:35 AM 50.0 °F - 26.4 °F 40% 29.64 in 10.0 mi WNW 20.7 mph 27.6 mph N/A   Clear
2:55 AM 48.6 °F - 25.3 °F 40% 29.64 in 10.0 mi WNW 17.3 mph 21.9 mph N/A   Clear
3:15 AM 50.0 °F - 27.0 °F 41% 29.66 in 10.0 mi NW 19.6 mph 26.5 mph N/A   Clear
3:35 AM 50.4 °F - 27.5 °F 41% 29.66 in 10.0 mi WNW 16.1 mph - N/A   Clear
3:55 AM 48.9 °F - 27.1 °F 43% 29.66 in 10.0 mi WNW 16.1 mph 20.7 mph N/A   Clear
4:15 AM 46.6 °F - 27.3 °F 47% 29.66 in 10.0 mi WNW 15.0 mph - N/A   Clear
4:35 AM 46.2 °F 39.3 °F 28.2 °F 50% 29.67 in 10.0 mi NW 17.3 mph - N/A   Clear
4:55 AM 47.1 °F - 30.0 °F 51% 29.68 in 10.0 mi NW 23.0 mph 27.6 mph N/A   Clear
5:15 AM 45.7 °F 38.8 °F 30.0 °F 54% 29.68 in 10.0 mi NW 16.1 mph 25.3 mph N/A   Clear
5:35 AM 44.6 °F 38.1 °F 30.2 °F 57% 29.69 in 10.0 mi NNW 13.8 mph - N/A   Clear
5:55 AM 40.5 °F 35.8 °F 28.8 °F 63% 29.69 in 10.0 mi NW 6.9 mph - N/A   Clear
6:15 AM 37.8 °F 30.7 °F 28.9 °F 71% 29.69 in 10.0 mi NNW 10.4 mph - N/A   Clear
6:35 AM 37.0 °F 31.0 °F 28.2 °F 70% 29.70 in 10.0 mi NW 8.1 mph - N/A   Clear
6:55 AM 38.1 °F 30.7 °F 29.3 °F 71% 29.70 in 10.0 mi NW 11.5 mph - N/A   Clear
7:15 AM 39.9 °F 30.8 °F 29.8 °F 67% 29.71 in 10.0 mi NNW 18.4 mph 23.0 mph N/A   Clear
7:35 AM 40.1 °F 32.7 °F 29.3 °F 65% 29.71 in 10.0 mi NW 12.7 mph - N/A   Clear
7:55 AM 39.6 °F 32.1 °F 28.4 °F 64% 29.70 in 10.0 mi NW 12.7 mph - N/A   Clear
8:15 AM 36.3 °F 30.1 °F 27.3 °F 70% 29.70 in 10.0 mi WNW 8.1 mph - N/A   Clear
8:35 AM 36.5 °F 29.7 °F 27.9 °F 71% 29.70 in 10.0 mi WNW 9.2 mph - N/A   Clear
8:55 AM 38.3 °F 31.9 °F 29.1 °F 70% 29.71 in 10.0 mi West 9.2 mph - N/A   Clear
9:15 AM 41.0 °F 34.7 °F 29.5 °F 64% 29.70 in 10.0 mi West 10.4 mph - N/A   Clear
9:35 AM 43.0 °F 35.7 °F 29.3 °F 59% 29.70 in 10.0 mi West 15.0 mph 18.4 mph N/A   Clear
9:55 AM 45.1 °F 38.1 °F 29.7 °F 55% 29.70 in 10.0 mi West 16.1 mph 20.7 mph N/A   Clear
10:15 AM 46.4 °F 39.8 °F 29.3 °F 51% 29.70 in 10.0 mi WNW 16.1 mph 24.2 mph N/A   Clear
10:35 AM 47.3 °F - 29.3 °F 50% 29.70 in 10.0 mi WNW 17.3 mph - N/A   Clear
10:55 AM 48.0 °F - 29.5 °F 49% 29.69 in 10.0 mi WNW 18.4 mph 24.2 mph N/A   Clear
11:15 AM 50.0 °F - 29.7 °F 46% 29.69 in 10.0 mi WNW 21.9 mph 26.5 mph N/A   Clear
11:35 AM 50.0 °F - 29.7 °F 46% 29.69 in 10.0 mi WNW 18.4 mph 23.0 mph N/A   Clear
11:55 AM 50.4 °F - 29.7 °F 45% 29.67 in 10.0 mi West 19.6 mph 25.3 mph N/A   Clear
12:15 PM 53.8 °F - 29.1 °F 39% 29.66 in 10.0 mi West 20.7 mph 27.6 mph N/A   Clear
12:35 PM 55.2 °F - 27.3 °F 34% 29.65 in 10.0 mi WNW 20.7 mph 33.4 mph N/A   Clear
12:55 PM 55.0 °F - 26.6 °F 33% 29.65 in 10.0 mi WNW 28.8 mph 34.5 mph N/A   Clear
1:15 PM 54.9 °F - 25.0 °F 32% 29.64 in 10.0 mi NW 32.2 mph 41.4 mph N/A   Mostly Cloudy
1:35 PM 55.9 °F - 24.8 °F 30% 29.64 in 10.0 mi NW 23.0 mph 35.7 mph N/A   Mostly Cloudy
1:55 PM 54.9 °F - 25.3 °F 32% 29.65 in 10.0 mi NW 25.3 mph 34.5 mph N/A   Overcast
2:15 PM 54.0 °F - 24.8 °F 32% 29.65 in 10.0 mi NW 24.2 mph 34.5 mph N/A   Overcast
2:35 PM 53.6 °F - 25.7 °F 34% 29.66 in 10.0 mi NW 21.9 mph 33.4 mph N/A   Overcast
2:55 PM 52.7 °F - 25.7 °F 35% 29.67 in 10.0 mi NNW 21.9 mph 28.8 mph N/A   Overcast
3:15 PM 43.3 °F 31.2 °F 27.5 °F 54% 29.74 in 5.0 mi North 43.7 mph 51.8 mph N/A   Haze
3:35 PM 38.8 °F 26.9 °F 23.9 °F 55% 29.78 in 10.0 mi North 29.9 mph 50.6 mph N/A   Overcast
3:55 PM 36.1 °F 22.4 °F 20.3 °F 53% 29.82 in 10.0 mi North 34.5 mph 49.5 mph N/A   Overcast
4:15 PM 34.3 °F 18.9 °F 18.5 °F 52% 29.87 in 7.0 mi NNW 41.4 mph 47.2 mph N/A Snow Light Snow
4:35 PM 33.1 °F 18.2 °F 16.9 °F 51% 29.88 in 10.0 mi North 34.5 mph 43.7 mph N/A   Overcast
4:55 PM 32.2 °F 17.6 °F 16.0 °F 51% 29.91 in 10.0 mi NNW 31.1 mph 43.7 mph N/A   Overcast
5:15 PM 31.1 °F 15.3 °F 10.6 °F 42% 29.93 in 10.0 mi NNW 35.7 mph 49.5 mph N/A   Overcast
5:35 PM 29.3 °F 12.0 °F 7.5 °F 40% 29.97 in 10.0 mi North 40.3 mph 44.9 mph N/A   Overcast
5:55 PM 26.6 °F 8.3 °F 2.5 °F 36% 29.99 in 10.0 mi North 40.3 mph 51.8 mph N/A   Overcast
6:15 PM 25.7 °F 9.3 °F 1.8 °F 36% 30.00 in 10.0 mi North 28.8 mph 47.2 mph N/A   Overcast
6:35 PM 24.6 °F 6.1 °F 2.8 °F 39% 30.02 in 10.0 mi North 36.8 mph 48.3 mph N/A   Mostly Cloudy
6:55 PM 23.5 °F 4.2 °F 3.9 °F 43% 30.06 in 10.0 mi NNW 39.1 mph 48.3 mph N/A   Overcast
7:15 PM 21.9 °F 2.2 °F -0.6 °F 38% 30.09 in 10.0 mi NNW 38.0 mph 50.6 mph N/A   Overcast
7:35 PM 20.8 °F 0.7 °F 3.0 °F 46% 30.12 in 10.0 mi North 38.0 mph 48.3 mph N/A   Overcast
7:55 PM 19.2 °F -2.0 °F -6.0 °F 33% 30.14 in 10.0 mi NNW 40.3 mph 50.6 mph N/A   Overcast
8:15 PM 18.3 °F -2.3 °F -3.5 °F 38% 30.16 in 10.0 mi North 35.7 mph 48.3 mph N/A   Overcast
8:35 PM 17.2 °F -4.6 °F -7.6 °F 33% 30.18 in 10.0 mi North 39.1 mph 47.2 mph N/A   Scattered Clouds
8:55 PM 16.2 °F -4.2 °F -8.7 °F 33% 30.19 in 10.0 mi North 31.1 mph 39.1 mph N/A   Scattered Clouds
9:15 PM 14.7 °F -3.8 °F -8.3 °F 35% 30.22 in 10.0 mi North 23.0 mph 28.8 mph N/A   Clear
9:35 PM 13.8 °F -6.1 °F -8.0 °F 38% 30.22 in 10.0 mi North 26.5 mph 34.5 mph N/A   Clear
9:55 PM 13.1 °F -8.4 °F -6.9 °F 41% 30.23 in 10.0 mi North 31.1 mph 35.7 mph N/A   Clear
10:15 PM 12.4 °F -6.9 °F -5.4 °F 45% 30.22 in 10.0 mi North 23.0 mph 31.1 mph N/A   Clear
10:35 PM 11.8 °F -5.8 °F -7.2 °F 42% 30.25 in 10.0 mi North 18.4 mph 38.0 mph N/A   Clear
10:55 PM 11.1 °F -10.0 °F -9.6 °F 39% 30.26 in 10.0 mi NNW 27.6 mph 38.0 mph N/A   Clear
11:15 PM 10.4 °F -9.1 °F -9.4 °F 41% 30.28 in 10.0 mi North 21.9 mph 32.2 mph N/A   Clear
11:35 PM 9.9 °F -9.8 °F -9.4 °F 42% 30.29 in 10.0 mi North 21.9 mph 27.6 mph N/A   Clear
11:55 PM 10.0 °F -12.2 °F -11.2 °F 38% 30.30 in 10.0 mi NNW 29.9 mph 38.0 mph N/A   Clear